Precipitable_Water
1.35 1.33 1.29 1.27 1.23 1.19 1.09 0.92 0.70 1.01 1.05 0.66 0.63 0.53 0.53 0.55 0.53 0.54 0.47 0.42 0.37 0.34 0.35 0.32 0.31 0.28 0.30 0.38 0.37 0.29 0.33 0.28 0.19 0.20 0.30 0.33 0.30 0.26 0.27 0.20 0.19 0.21 0.19 0.17
1.26 1.26 1.22 1.21 1.17 1.12 0.99 0.77 0.77 0.98 0.93 0.54 0.54 0.58 0.55 0.54 0.50 0.49 0.46 0.42 0.43 0.42 0.36 0.30 0.33 0.33 0.40 0.41 0.37 0.32 0.34 0.27 0.20 0.20 0.25 0.30 0.26 0.29 0.28 0.28 0.27 0.22 0.19 0.18
1.15 1.17 1.17 1.15 1.13 1.09 0.97 0.75 0.59 0.71 0.76 0.70 0.58 0.54 0.51 0.47 0.55 0.49 0.49 0.46 0.48 0.42 0.36 0.37 0.31 0.33 0.38 0.42 0.40 0.42 0.40 0.29 0.24 0.18 0.21 0.27 0.24 0.27 0.29 0.28 0.22 0.21 0.21 0.23
0.97 1.05 1.08 1.07 1.08 1.04 0.91 0.72 0.61 0.67 0.53 0.58 0.60 0.57 0.52 0.47 0.44 0.49 0.49 0.43 0.42 0.38 0.31 0.32 0.31 0.36 0.38 0.42 0.43 0.41 0.37 0.25 0.27 0.27 0.28 0.29 0.27 0.26 0.28 0.27 0.27 0.23 0.23 0.26
0.88 0.96 0.99 0.99 0.99 0.98 0.80 0.63 0.60 0.65 0.59 0.60 0.55 0.53 0.50 0.45 0.45 0.45 0.41 0.38 0.38 0.39 0.33 0.33 0.31 0.34 0.36 0.35 0.39 0.38 0.40 0.27 0.29 0.24 0.28 0.27 0.23 0.24 0.25 0.26 0.28 0.28 0.28 0.26
0.78 0.81 0.84 0.93 0.91 0.91 0.73 0.76 0.74 0.64 0.55 0.52 0.49 0.48 0.47 0.44 0.45 0.48 0.47 0.42 0.40 0.37 0.39 0.43 0.43 0.43 0.41 0.40 0.36 0.34 0.33 0.29 0.24 0.18 0.24 0.22 0.16 0.18 0.19 0.20 0.24 0.25 0.22 0.28
0.71 0.76 0.82 0.82 0.83 0.83 0.78 0.73 0.68 0.55 0.45 0.48 0.46 0.46 0.47 0.44 0.45 0.43 0.46 0.45 0.40 0.43 0.47 0.43 0.40 0.37 0.35 0.35 0.35 0.38 0.31 0.28 0.26 0.19 0.21 0.11 0.16 0.23 0.23 0.21 0.24 0.28 0.30 0.32
0.65 0.71 0.78 0.80 0.83 0.80 0.71 0.71 0.63 0.54 0.42 0.46 0.46 0.45 0.44 0.46 0.46 0.42 0.41 0.44 0.44 0.44 0.37 0.28 0.24 0.23 0.23 0.23 0.26 0.28 0.33 0.29 0.22 0.17 0.15 0.16 0.16 0.20 0.20 0.19 0.20 0.25 0.25 0.28
0.61 0.67 0.70 0.74 0.76 0.75 0.72 0.67 0.65 0.53 0.43 0.40 0.44 0.41 0.41 0.37 0.38 0.39 0.40 0.44 0.44 0.40 0.30 0.24 0.18 0.15 0.17 0.17 0.20 0.27 0.27 0.30 0.23 0.19 0.13 0.10 0.18 0.24 0.26 0.25 0.16 0.24 0.25 0.27
0.64 0.66 0.66 0.66 0.65 0.69 0.67 0.65 0.62 0.49 0.40 0.42 0.41 0.36 0.35 0.38 0.36 0.33 0.35 0.35 0.33 0.35 0.24 0.20 0.18 0.16 0.20 0.14 0.16 0.17 0.19 0.21 0.17 0.17 0.15 0.17 0.23 0.25 0.28 0.15 0.17 0.24 0.24 0.26
0.62 0.63 0.63 0.64 0.65 0.64 0.59 0.55 0.57 0.44 0.35 0.34 0.36 0.36 0.36 0.34 0.33 0.27 0.29 0.28 0.29 0.26 0.21 0.20 0.19 0.18 0.18 0.16 0.17 0.18 0.16 0.15 0.15 0.17 0.15 0.12 0.22 0.24 0.19 0.20 0.22 0.22 0.23 0.26
0.62 0.60 0.57 0.54 0.51 0.50 0.46 0.38 0.48 0.46 0.34 0.33 0.40 0.40 0.42 0.37 0.35 0.32 0.31 0.27 0.24 0.26 0.20 0.19 0.18 0.15 0.17 0.15 0.11 0.18 0.14 0.18 0.16 0.19 0.17 0.21 0.21 0.20 0.20 0.20 0.20 0.22 0.24 0.24
0.60 0.57 0.54 0.51 0.47 0.44 0.40 0.38 0.42 0.40 0.35 0.33 0.31 0.31 0.39 0.42 0.39 0.38 0.25 0.25 0.25 0.23 0.24 0.20 0.18 0.14 0.17 0.12 0.12 0.13 0.15 0.17 0.14 0.14 0.18 0.19 0.19 0.19 0.20 0.20 0.20 0.21 0.22 0.23
0.54 0.51 0.47 0.45 0.45 0.45 0.44 0.41 0.43 0.35 0.31 0.26 0.30 0.37 0.31 0.35 0.34 0.32 0.28 0.26 0.28 0.26 0.24 0.19 0.16 0.14 0.17 0.12 0.12 0.11 0.12 0.13 0.11 0.11 0.12 0.13 0.13 0.15 0.18 0.20 0.20 0.20 0.21 0.21
0.52 0.51 0.47 0.46 0.47 0.46 0.42 0.40 0.41 0.39 0.28 0.24 0.26 0.31 0.32 0.31 0.29 0.28 0.27 0.24 0.22 0.20 0.17 0.15 0.14 0.17 0.14 0.14 0.13 0.11 0.11 0.08 0.07 0.06 0.09 0.09 0.09 0.10 0.13 0.15 0.18 0.21 0.22 0.21
0.49 0.51 0.49 0.46 0.43 0.39 0.32 0.25 0.37 0.40 0.35 0.23 0.19 0.29 0.27 0.26 0.25 0.24 0.22 0.22 0.21 0.20 0.16 0.15 0.15 0.17 0.13 0.10 0.09 0.10 0.10 0.11 0.12 0.11 0.12 0.13 0.15 0.16 0.18 0.18 0.19 0.19 0.19 0.20
0.52 0.48 0.45 0.40 0.37 0.35 0.29 0.27 0.33 0.36 0.31 0.19 0.17 0.17 0.23 0.23 0.21 0.19 0.17 0.19 0.18 0.17 0.16 0.14 0.14 0.13 0.16 0.13 0.08 0.11 0.12 0.14 0.17 0.20 0.20 0.18 0.21 0.20 0.23 0.23 0.23 0.25 0.25 0.25
0.47 0.44 0.41 0.38 0.37 0.35 0.31 0.38 0.38 0.33 0.22 0.18 0.12 0.14 0.16 0.20 0.13 0.11 0.19 0.15 0.17 0.17 0.16 0.17 0.14 0.15 0.15 0.10 0.12 0.16 0.19 0.22 0.20 0.19 0.22 0.23 0.25 0.25 0.25 0.26 0.25 0.23 0.23 0.24
0.42 0.39 0.36 0.32 0.31 0.27 0.32 0.40 0.33 0.30 0.21 0.13 0.13 0.10 0.09 0.18 0.14 0.15 0.15 0.17 0.12 0.19 0.14 0.15 0.16 0.14 0.11 0.14 0.17 0.20 0.22 0.21 0.18 0.22 0.23 0.24 0.24 0.25 0.26 0.27 0.27 0.26 0.26 0.27
0.42 0.35 0.27 0.22 0.29 0.39 0.34 0.24 0.17 0.17 0.18 0.17 0.12 0.16 0.10 0.14 0.13 0.11 0.11 0.14 0.13 0.10 0.13 0.20 0.15 0.14 0.19 0.23 0.24 0.21 0.19 0.21 0.22 0.21 0.22 0.24 0.24 0.26 0.27 0.27 0.29 0.29 0.28 0.29
0.31 0.25 0.22 0.32 0.35 0.25 0.19 0.13 0.12 0.13 0.11 0.14 0.14 0.14 0.11 0.17 0.10 0.10 0.14 0.11 0.12 0.09 0.12 0.15 0.14 0.14 0.18 0.21 0.21 0.21 0.22 0.23 0.24 0.26 0.28 0.29 0.29 0.28 0.28 0.29 0.31 0.32 0.32 0.31
0.27 0.27 0.31 0.27 0.19 0.15 0.11 0.10 0.12 0.10 0.09 0.13 0.12 0.13 0.14 0.16 0.19 0.13 0.14 0.11 0.13 0.09 0.17 0.15 0.12 0.17 0.20 0.20 0.20 0.21 0.22 0.23 0.25 0.28 0.29 0.30 0.30 0.31 0.31 0.31 0.32 0.34 0.35 0.36
0.24 0.18 0.16 0.13 0.12 0.08 0.06 0.06 0.07 0.08 0.12 0.14 0.14 0.11 0.14 0.16 0.17 0.14 0.13 0.10 0.10 0.16 0.13 0.12 0.15 0.19 0.20 0.21 0.21 0.21 0.22 0.23 0.27 0.29 0.30 0.31 0.31 0.33 0.33 0.33 0.36 0.36 0.36 0.38
0.13 0.10 0.07 0.07 0.07 0.07 0.08 0.08 0.09 0.12 0.14 0.14 0.14 0.13 0.12 0.15 0.13 0.13 0.09 0.11 0.13 0.10 0.10 0.12 0.18 0.19 0.20 0.21 0.22 0.22 0.20 0.25 0.27 0.29 0.30 0.31 0.32 0.33 0.35 0.36 0.37 0.36 0.32 0.33
0.11 0.10 0.07 0.08 0.11 0.12 0.13 0.14 0.15 0.16 0.17 0.16 0.14 0.15 0.15 0.13 0.12 0.12 0.11 0.09 0.08 0.11 0.12 0.17 0.19 0.20 0.20 0.20 0.19 0.20 0.24 0.27 0.28 0.30 0.30 0.31 0.33 0.34 0.35 0.38 0.38 0.35 0.32 0.31
0.14 0.13 0.10 0.12 0.11 0.11 0.13 0.13 0.13 0.17 0.17 0.18 0.16 0.13 0.11 0.10 0.11 0.10 0.08 0.08 0.08 0.13 0.18 0.19 0.20 0.18 0.17 0.18 0.20 0.25 0.27 0.28 0.29 0.30 0.31 0.32 0.33 0.34 0.36 0.38 0.38 0.36 0.31 0.29
0.13 0.12 0.16 0.15 0.14 0.13 0.14 0.16 0.16 0.19 0.17 0.13 0.14 0.10 0.09 0.11 0.10 0.09 0.11 0.08 0.12 0.15 0.16 0.17 0.17 0.17 0.18 0.20 0.24 0.26 0.27 0.29 0.30 0.31 0.32 0.33 0.35 0.37 0.36 0.35 0.37 0.36 0.36 0.36
Wind_Speed
46 46 44 44 44 40 39 36 33 31 29 29 30 31 29 30 28 27 26 24 23 22 21 22 21 20 18 17 16 15 15 15 16 17 15 15 15 16 16 15 17 16 16 21
43 43 41 40 40 40 38 37 36 35 34 33 33 32 31 31 28 28 26 26 25 23 22 21 22 20 19 18 17 16 16 16 16 16 14 15 15 15 16 15 16 17 15 18
42 39 39 38 38 35 34 32 31 33 36 35 34 33 33 32 30 29 28 26 24 23 22 22 21 20 18 18 18 18 18 18 18 17 16 14 15 15 15 15 16 17 19 19
42 38 37 34 33 32 32 31 32 31 30 32 33 31 31 30 28 28 26 26 26 23 21 22 22 20 19 18 18 18 17 19 19 20 20 20 20 21 20 20 20 19 19 20
39 39 38 34 32 30 30 29 29 30 29 28 30 30 27 27 25 24 24 24 21 23 22 21 18 19 21 20 18 19 20 19 18 20 21 22 22 21 22 24 24 24 24 26
37 37 37 36 35 32 28 26 25 25 26 26 26 26 27 25 25 24 23 23 21 21 21 20 20 20 20 19 18 18 19 17 17 19 18 20 23 22 24 21 21 23 26 26
35 36 36 36 36 35 29 26 23 22 23 23 24 24 26 27 26 25 23 21 21 21 20 20 21 22 23 23 23 22 19 18 18 19 18 19 19 17 18 19 19 19 21 22
34 35 36 35 35 33 31 28 27 26 23 23 22 22 22 21 21 21 21 21 20 19 18 18 19 19 21 22 24 24 24 20 18 18 18 22 23 17 15 15 14 15 17 17
32 33 33 33 33 33 31 28 28 26 23 24 21 22 22 21 20 20 20 19 19 19 19 18 18 18 18 17 16 16 21 22 20 18 18 19 17 16 15 15 15 15 14 14
29 30 31 32 32 32 30 27 27 25 23 23 20 19 20 20 19 18 19 20 19 19 18 19 18 19 19 18 17 16 15 18 24 22 21 21 20 20 18 15 16 15 13 13
26 26 26 28 28 29 29 27 26 25 23 21 20 19 19 19 20 19 18 18 19 18 18 18 18 18 18 18 18 17 17 17 19 21 20 24 20 18 18 19 20 19 17 16
23 23 23 23 24 24 24 23 23 22 20 19 20 18 18 18 19 19 19 18 16 16 16 17 16 18 18 17 18 19 19 19 19 19 19 19 17 18 20 21 21 19 19 19
20 20 21 21 21 22 22 21 20 20 19 18 19 18 17 17 17 18 17 18 18 17 18 17 18 19 18 19 20 20 20 21 22 22 24 24 26 27 25 23 24 26 25 24
18 17 17 18 18 18 19 19 19 19 18 18 17 16 16 16 17 17 17 17 17 17 18 18 19 20 21 22 24 24 25 25 26 30 32 34 33 32 33 34 34 34 33 32
15 15 14 14 14 14 14 14 14 15 16 13 15 15 14 14 14 15 15 15 16 17 18 19 21 23 24 26 27 28 27 29 30 34 35 35 37 38 39 40 41 40 40 40
13 13 13 13 13 13 14 13 13 13 13 13 13 13 13 13 13 14 15 16 18 19 20 22 23 25 25 25 26 27 27 29 31 32 33 35 36 35 34 37 39 40 41 43
11 11 10 10 10 11 11 11 11 11 11 11 11 12 12 12 12 13 15 17 18 20 21 23 24 25 25 26 28 28 28 28 26 26 27 28 29 30 32 34 36 38 40 41
9 9 9 8 7 8 7 7 8 9 9 9 10 12 11 12 13 14 16 18 19 21 22 22 23 22 22 23 22 20 18 18 21 22 24 26 28 30 32 33 34 37 38 39
10 9 8 7 6 7 8 7 7 7 9 10 10 11 13 13 14 16 17 18 19 20 20 21 19 18 18 18 17 16 16 17 21 24 26 27 28 30 31 32 33 35 36 38
9 6 5 6 6 7 7 7 9 9 11 10 11 11 12 13 15 17 18 18 18 18 18 16 16 17 17 13 13 13 15 18 22 25 27 29 31 30 30 31 31 31 31 31
6 6 5 6 6 7 8 8 8 10 10 10 11 11 13 15 15 17 17 17 17 16 16 14 13 11 11 10 11 14 17 21 24 27 30 29 29 29 29 28 28 28 29 29
7 6 6 6 7 8 8 9 10 10 11 11 11 13 14 15 16 15 16 16 14 15 13 12 11 8 9 9 13 17 21 25 27 28 28 28 28 27 27 27 27 27 27 27
6 6 7 8 10 8 8 10 11 11 12 12 13 14 14 14 14 14 14 13 13 13 11 11 10 8 9 13 17 21 25 27 27 27 26 26 24 25 24 23 23 23 23 22
8 8 8 9 10 10 10 10 10 12 11 12 13 14 14 15 14 13 12 13 12 11 10 10 8 9 12 17 20 24 27 26 26 26 25 23 22 22 21 19 19 17 12 11
8 9 10 10 10 9 10 11 11 12 12 12 14 15 15 15 14 12 11 11 11 10 9 8 9 13 16 20 23 26 26 24 24 23 22 19 20 19 17 16 14 9 4 8
9 9 9 9 9 11 11 11 13 13 13 13 14 13 13 13 11 10 11 9 10 9 9 11 14 17 20 22 24 25 23 22 21 20 19 17 17 16 15 12 7 2 4 10
9 9 9 9 10 11 12 12 13 13 12 13 12 11 12 10 10 11 11 12 12 12 14 15 17 19 21 22 23 23 21 20 19 17 16 14 14 12 10 7 5 4 9 13
Wind_Direction
262 258 256 254 252 254 257 262 266 262 259 263 266 268 271 271 270 271 271 271 272 272 272 277 277 276 279 282 276 272 274 278 278 273 280 273 270 264 255 257 260 261 261 263
263 254 253 252 251 252 256 261 263 259 256 261 264 269 270 268 268 267 267 268 270 270 267 274 271 275 276 275 268 271 269 276 285 294 288 279 273 268 261 261 261 255 258 264
255 250 249 250 250 250 254 262 263 260 256 261 263 264 265 266 265 265 265 268 269 268 266 266 275 273 272 271 268 269 269 267 267 270 279 280 278 275 271 262 262 262 259 268
247 247 247 248 246 246 254 260 263 262 260 260 260 263 266 260 260 262 261 265 261 260 264 266 265 266 270 270 272 267 266 268 270 273 273 274 273 271 266 260 262 261 265 259
244 243 241 243 244 249 257 260 261 260 264 262 256 254 260 258 258 256 260 260 259 259 260 262 265 263 264 266 268 264 268 270 273 274 275 275 275 270 267 265 262 263 262 262
241 239 238 239 239 248 259 258 263 260 260 260 258 257 255 258 254 258 260 256 257 260 259 263 264 267 264 264 263 263 265 266 272 274 278 281 279 267 262 266 263 261 260 263
238 237 236 237 239 243 252 254 255 258 263 259 256 257 253 253 254 255 258 256 254 257 260 264 266 266 264 262 259 257 263 264 268 274 280 275 275 275 269 267 271 268 267 265
238 237 236 238 239 240 246 251 250 256 263 258 258 254 255 252 251 253 253 255 256 254 262 265 269 269 269 263 257 255 254 260 267 270 270 280 282 278 275 271 270 278 270 269
236 236 236 237 237 238 242 249 250 255 257 257 257 253 252 251 251 254 254 254 253 259 263 263 261 264 267 267 265 270 251 254 259 265 269 273 275 276 276 269 267 279 275 271
234 234 235 236 235 236 239 247 248 252 254 252 255 255 251 249 251 252 252 252 256 261 260 261 263 266 265 266 266 263 258 258 254 257 263 273 274 273 273 262 267 275 273 269
228 230 231 233 233 234 240 245 247 247 251 251 253 254 252 254 252 252 252 254 258 259 257 262 266 265 267 272 270 267 261 260 262 259 262 265 279 270 264 266 267 268 268 266
223 225 226 229 230 232 235 240 240 242 246 249 249 253 255 254 251 249 250 255 257 255 260 264 267 267 272 269 272 272 269 266 267 262 266 263 271 270 268 265 262 264 268 265
218 222 225 227 228 229 234 234 237 241 246 249 250 253 256 253 251 251 251 256 259 262 263 263 268 270 270 270 271 273 272 272 269 273 267 265 272 273 269 265 266 268 267 265
213 217 221 222 225 227 232 236 241 241 243 248 250 249 251 255 252 254 256 255 260 262 266 268 269 272 272 274 275 273 272 276 273 271 274 274 270 269 270 270 268 267 263 261
206 208 211 215 221 225 226 230 238 237 238 245 241 245 253 255 255 252 256 256 260 266 271 273 273 275 277 277 278 275 274 273 274 276 277 274 274 273 272 269 267 265 263 261
200 208 213 218 222 226 232 237 241 240 236 237 241 248 251 259 257 257 259 262 268 272 274 276 277 277 276 278 280 280 275 277 278 279 278 277 278 275 272 271 270 267 263 260
196 200 209 216 220 223 229 231 232 232 230 238 246 252 255 259 261 264 268 272 275 277 278 278 278 279 275 280 280 280 279 279 279 283 284 282 280 279 278 274 272 270 266 261
187 187 186 193 196 202 213 222 227 227 232 244 250 257 255 263 267 272 277 280 283 283 282 283 281 282 279 282 283 284 280 277 284 289 289 288 287 286 283 281 277 272 267 262
179 182 188 197 211 222 225 226 239 242 247 251 256 253 259 268 273 278 284 285 288 286 284 283 281 279 276 279 281 284 281 283 293 296 295 294 292 290 287 284 280 275 270 264
174 192 215 222 223 224 235 253 257 262 264 265 261 262 266 275 283 285 289 289 287 288 285 283 279 278 277 277 277 284 293 296 301 302 301 300 298 296 293 288 283 278 273 267
212 228 238 215 228 246 261 263 263 268 270 265 261 267 276 284 286 286 287 286 287 288 283 278 276 270 268 267 278 292 298 303 303 302 302 300 298 298 295 293 288 281 274 265
223 216 216 240 260 265 265 266 270 268 266 266 266 275 280 287 290 289 289 285 286 280 279 276 270 258 255 274 291 300 305 308 307 306 305 303 301 299 298 295 292 285 276 264
229 251 257 266 271 276 266 266 275 274 269 269 274 282 286 290 291 288 285 285 277 283 273 262 248 252 270 289 300 306 311 312 311 311 309 308 305 305 303 301 298 293 281 260
256 260 270 268 277 269 264 263 268 272 272 271 277 284 286 287 291 284 280 277 280 272 262 249 239 269 291 303 306 310 313 314 314 314 313 311 311 311 311 309 307 302 285 241
264 270 269 265 265 267 270 271 277 276 275 279 284 286 286 286 283 276 278 283 268 245 243 240 269 288 299 306 312 314 315 315 315 316 317 314 317 318 316 318 317 311 272 194
269 273 270 262 269 275 278 278 279 279 280 284 287 286 289 279 270 269 259 260 249 243 247 271 286 295 304 309 314 316 315 316 316 317 318 317 321 323 325 329 331 336 151 157
272 269 266 266 274 273 278 280 282 281 281 279 282 282 272 278 272 267 256 260 251 260 272 280 289 299 305 310 313 316 316 316 317 319 320 319 323 326 336 354 25 108 136 143